QPF
0.00 0.00 0.00 0.00 0.00 0.00 0.00 0.00 0.00 0.00 0.00 0.00 0.00 0.00 0.00 0.00 0.01 0.00 0.00 0.00 0.00 0.00 0.00 0.00 0.00 0.02 0.00 0.00 0.00 0.00 0.00 0.00 0.00 0.00 0.00 0.00 0.00 0.00 0.00 0.00 0.00 0.00 0.00 0.00 0.00
0.00 0.00 0.00 0.00 0.00 0.00 0.00 0.00 0.00 0.00 0.00 0.00 0.00 0.00 0.00 0.00 0.00 0.00 0.00 0.00 0.00 0.00 0.00 0.00 0.00 0.01 0.01 0.00 0.00 0.00 0.00 0.00 0.00 0.00 0.00 0.00 0.00 0.00 0.00 0.00 0.00 0.00 0.00 0.00 0.00
0.00 0.00 0.00 0.00 0.00 0.00 0.00 0.00 0.00 0.00 0.00 0.00 0.00 0.00 0.01 0.00 0.00 0.00 0.00 0.00 0.00 0.00 0.00 0.00 0.00 0.00 0.00 0.00 0.00 0.00 0.00 0.00 0.00 0.00 0.00 0.00 0.00 0.00 0.00 0.00 0.00 0.00 0.00 0.00 0.00
0.00 0.00 0.00 0.00 0.00 0.00 0.00 0.00 0.00 0.00 0.00 0.00 0.00 0.01 0.00 0.00 0.00 0.00 0.00 0.00 0.00 0.00 0.00 0.00 0.00 0.00 0.00 0.00 0.00 0.00 0.00 0.00 0.00 0.00 0.00 0.00 0.00 0.00 0.00 0.00 0.00 0.00 0.00 0.00 0.00
0.00 0.00 0.00 0.00 0.00 0.00 0.00 0.00 0.00 0.00 0.00 0.00 0.00 0.00 0.00 0.00 0.00 0.00 0.00 0.00 0.00 0.00 0.00 0.00 0.00 0.00 0.00 0.00 0.00 0.00 0.00 0.00 0.00 0.00 0.00 0.00 0.00 0.00 0.00 0.00 0.00 0.00 0.00 0.00 0.00
0.00 0.00 0.00 0.00 0.00 0.00 0.00 0.00 0.00 0.00 0.00 0.00 0.00 0.00 0.00 0.00 0.00 0.00 0.00 0.00 0.00 0.00 0.00 0.00 0.00 0.00 0.00 0.00 0.00 0.00 0.00 0.00 0.00 0.00 0.00 0.00 0.00 0.00 0.00 0.00 0.00 0.00 0.00 0.00 0.00
0.00 0.00 0.00 0.00 0.00 0.00 0.00 0.00 0.00 0.00 0.00 0.00 0.00 0.00 0.00 0.00 0.00 0.00 0.00 0.00 0.00 0.00 0.00 0.00 0.00 0.00 0.00 0.00 0.00 0.00 0.00 0.00 0.00 0.00 0.00 0.00 0.00 0.00 0.00 0.00 0.00 0.00 0.00 0.00 0.00
0.00 0.00 0.00 0.00 0.00 0.00 0.00 0.00 0.00 0.00 0.00 0.00 0.01 0.00 0.00 0.00 0.00 0.00 0.00 0.00 0.00 0.00 0.00 0.00 0.00 0.00 0.00 0.00 0.00 0.00 0.00 0.00 0.00 0.00 0.00 0.00 0.00 0.00 0.00 0.00 0.00 0.00 0.00 0.00 0.00
0.00 0.00 0.00 0.00 0.00 0.00 0.00 0.00 0.00 0.00 0.00 0.03 0.02 0.01 0.00 0.00 0.00 0.00 0.00 0.00 0.00 0.00 0.00 0.01 0.01 0.00 0.00 0.00 0.00 0.00 0.00 0.00 0.00 0.00 0.00 0.00 0.00 0.00 0.00 0.00 0.00 0.00 0.00 0.00 0.00
0.00 0.00 0.00 0.00 0.00 0.00 0.00 0.00 0.00 0.00 0.00 0.02 0.01 0.01 0.00 0.00 0.00 0.00 0.00 0.00 0.00 0.00 0.01 0.01 0.01 0.00 0.00 0.00 0.00 0.00 0.00 0.00 0.00 0.00 0.00 0.00 0.00 0.00 0.00 0.00 0.00 0.00 0.00 0.00 0.00
0.00 0.00 0.00 0.00 0.00 0.00 0.00 0.00 0.00 0.00 0.00 0.00 0.00 0.00 0.00 0.00 0.00 0.00 0.00 0.00 0.00 0.00 0.00 0.00 0.00 0.00 0.00 0.00 0.00 0.00 0.00 0.00 0.00 0.00 0.00 0.00 0.00 0.00 0.00 0.00 0.00 0.00 0.00 0.00 0.00
0.00 0.00 0.00 0.00 0.00 0.00 0.00 0.00 0.00 0.00 0.00 0.00 0.00 0.00 0.00 0.00 0.00 0.00 0.00 0.00 0.00 0.00 0.00 0.00 0.00 0.00 0.00 0.00 0.00 0.00 0.00 0.00 0.00 0.00 0.00 0.00 0.00 0.00 0.00 0.00 0.00 0.00 0.00 0.00 0.00
0.00 0.00 0.00 0.00 0.00 0.00 0.00 0.00 0.00 0.00 0.00 0.00 0.00 0.00 0.00 0.00 0.00 0.00 0.00 0.00 0.00 0.00 0.00 0.00 0.00 0.00 0.00 0.00 0.00 0.00 0.00 0.00 0.00 0.00 0.00 0.00 0.00 0.00 0.00 0.00 0.00 0.00 0.00 0.00 0.00
0.00 0.00 0.00 0.00 0.00 0.00 0.00 0.00 0.00 0.00 0.00 0.00 0.00 0.00 0.00 0.00 0.00 0.00 0.00 0.00 0.00 0.00 0.00 0.00 0.00 0.00 0.00 0.00 0.00 0.00 0.00 0.00 0.00 0.00 0.00 0.00 0.00 0.00 0.00 0.00 0.00 0.00 0.00 0.00 0.00
0.00 0.00 0.00 0.00 0.00 0.00 0.00 0.00 0.00 0.00 0.00 0.00 0.00 0.00 0.00 0.00 0.00 0.00 0.00 0.00 0.00 0.00 0.00 0.00 0.00 0.00 0.00 0.00 0.00 0.00 0.00 0.00 0.00 0.00 0.00 0.00 0.00 0.00 0.00 0.00 0.00 0.00 0.00 0.00 0.00
0.00 0.00 0.00 0.00 0.00 0.00 0.00 0.00 0.00 0.01 0.00 0.00 0.00 0.00 0.00 0.00 0.00 0.00 0.00 0.00 0.00 0.00 0.00 0.00 0.00 0.00 0.00 0.00 0.00 0.00 0.00 0.00 0.00 0.00 0.00 0.00 0.00 0.00 0.00 0.00 0.00 0.00 0.00 0.00 0.00
0.00 0.00 0.00 0.00 0.00 0.00 0.00 0.00 0.00 0.01 0.00 0.00 0.00 0.00 0.00 0.00 0.00 0.00 0.00 0.00 0.00 0.00 0.00 0.00 0.00 0.00 0.00 0.00 0.00 0.00 0.00 0.00 0.00 0.00 0.00 0.00 0.00 0.00 0.00 0.00 0.00 0.00 0.00 0.00 0.00
0.00 0.00 0.00 0.00 0.00 0.00 0.00 0.00 0.00 0.01 0.00 0.00 0.00 0.00 0.00 0.00 0.00 0.00 0.00 0.00 0.00 0.00 0.00 0.00 0.00 0.00 0.00 0.00 0.00 0.00 0.00 0.00 0.00 0.00 0.00 0.00 0.00 0.00 0.00 0.00 0.00 0.00 0.00 0.00 0.00
0.00 0.00 0.00 0.00 0.00 0.00 0.00 0.00 0.01 0.01 0.00 0.00 0.00 0.00 0.00 0.00 0.00 0.00 0.00 0.00 0.00 0.00 0.00 0.00 0.00 0.00 0.00 0.00 0.00 0.00 0.00 0.00 0.00 0.00 0.00 0.00 0.00 0.00 0.00 0.00 0.00 0.00 0.00 0.00 0.00
0.00 0.00 0.00 0.00 0.00 0.00 0.00 0.00 0.00 0.01 0.00 0.00 0.01 0.00 0.00 0.00 0.00 0.00 0.00 0.00 0.00 0.00 0.00 0.00 0.00 0.00 0.00 0.00 0.00 0.00 0.00 0.00 0.00 0.00 0.00 0.00 0.00 0.00 0.00 0.00 0.00 0.00 0.00 0.00 0.00
0.00 0.00 0.00 0.00 0.00 0.00 0.00 0.00 0.00 0.00 0.00 0.00 0.01 0.01 0.00 0.00 0.00 0.00 0.00 0.00 0.00 0.00 0.00 0.00 0.00 0.00 0.00 0.00 0.00 0.00 0.00 0.00 0.00 0.00 0.00 0.00 0.00 0.00 0.00 0.00 0.00 0.00 0.00 0.00 0.00
0.00 0.00 0.00 0.00 0.00 0.00 0.00 0.00 0.00 0.00 0.00 0.00 0.00 0.01 0.01 0.00 0.00 0.00 0.00 0.00 0.00 0.00 0.00 0.00 0.00 0.00 0.00 0.00 0.00 0.00 0.00 0.00 0.00 0.00 0.00 0.00 0.00 0.00 0.00 0.00 0.00 0.00 0.00 0.00 0.00
0.00 0.00 0.00 0.00 0.00 0.00 0.00 0.00 0.00 0.00 0.00 0.00 0.00 0.02 0.01 0.00 0.01 0.00 0.00 0.00 0.00 0.00 0.00 0.00 0.00 0.00 0.00 0.00 0.00 0.00 0.00 0.00 0.00 0.00 0.00 0.00 0.00 0.00 0.00 0.00 0.00 0.00 0.00 0.00 0.00
0.00 0.00 0.00 0.00 0.00 0.00 0.00 0.00 0.00 0.00 0.00 0.00 0.01 0.01 0.00 0.00 0.00 0.00 0.00 0.00 0.00 0.00 0.00 0.00 0.00 0.00 0.00 0.00 0.00 0.00 0.00 0.00 0.00 0.00 0.00 0.00 0.00 0.00 0.00 0.00 0.00 0.00 0.00 0.00 0.00
0.00 0.00 0.00 0.00 0.00 0.00 0.00 0.00 0.00 0.00 0.00 0.00 0.00 0.00 0.00 0.00 0.00 0.00 0.00 0.00 0.00 0.00 0.00 0.00 0.00 0.00 0.00 0.00 0.00 0.00 0.00 0.00 0.00 0.00 0.00 0.00 0.00 0.00 0.00 0.00 0.00 0.00 0.00 0.00 0.00
0.00 0.00 0.00 0.00 0.00 0.00 0.00 0.00 0.00 0.00 0.00 0.00 0.00 0.00 0.00 0.00 0.00 0.00 0.00 0.00 0.00 0.00 0.00 0.00 0.00 0.00 0.00 0.00 0.00 0.00 0.00 0.00 0.00 0.00 0.00 0.00 0.00 0.00 0.00 0.00 0.00 0.00 0.00 0.00 0.00
0.00 0.00 0.00 0.00 0.00 0.00 0.00 0.00 0.00 0.00 0.00 0.00 0.00 0.00 0.00 0.00 0.00 0.00 0.00 0.00 0.00 0.00 0.00 0.00 0.00 0.00 0.00 0.00 0.00 0.00 0.00 0.00 0.00 0.00 0.00 0.00 0.00 0.00 0.00 0.00 0.00 0.00 0.00 0.00 0.00
MSLP
1018.59 1018.01 1017.52 1016.97 1016.41 1015.81 1015.19 1014.58 1013.94 1013.49 1013.00 1012.65 1012.36 1012.01 1011.89 1011.65 1011.54 1011.56 1010.64 1009.87 1009.87 1009.65 1009.59 1010.00 1010.68 1010.81 1011.60 1012.25 1012.75 1013.26 1013.76 1013.39 1012.53 1012.51 1011.90 1011.68 1011.68 1011.35 1011.31 1011.83 1012.26 1012.45 1012.80 1013.41 1013.69
1018.58 1018.04 1017.47 1016.84 1016.28 1015.70 1014.97 1014.29 1013.70 1013.09 1012.55 1012.12 1011.90 1011.67 1011.44 1011.35 1011.25 1010.12 1008.19 1008.54 1009.05 1009.29 1009.68 1009.49 1009.94 1010.61 1011.53 1011.90 1012.49 1012.58 1012.33 1011.79 1011.23 1011.34 1011.34 1011.22 1011.23 1011.10 1011.37 1011.63 1012.18 1012.77 1013.50 1014.07 1014.17
1018.57 1017.97 1017.40 1016.75 1016.08 1015.37 1014.66 1013.96 1013.30 1012.67 1012.08 1011.62 1011.24 1011.24 1011.14 1011.20 1011.14 1008.11 1006.59 1006.81 1007.67 1008.55 1009.49 1009.47 1009.45 1009.72 1010.62 1011.35 1011.90 1011.53 1010.60 1010.91 1010.78 1010.61 1010.83 1011.13 1011.13 1010.88 1011.08 1011.48 1011.23 1011.96 1012.90 1013.97 1014.25
1018.44 1017.83 1017.15 1016.49 1015.78 1014.94 1014.18 1013.54 1012.81 1012.05 1011.42 1010.96 1010.74 1010.71 1010.87 1011.15 1010.01 1006.41 1006.08 1005.99 1006.94 1007.87 1008.55 1009.25 1009.76 1009.72 1009.68 1010.09 1010.39 1010.69 1010.29 1010.36 1010.38 1010.35 1010.67 1010.93 1010.91 1011.00 1010.98 1010.78 1010.75 1011.40 1012.12 1013.41 1013.90
1018.44 1017.70 1017.10 1016.45 1015.60 1014.67 1013.72 1012.99 1012.27 1011.44 1010.73 1010.26 1009.93 1010.15 1010.83 1010.66 1008.23 1006.34 1006.21 1006.26 1006.17 1007.43 1007.85 1008.06 1008.58 1009.23 1009.36 1009.90 1010.56 1010.18 1009.98 1009.84 1009.99 1010.18 1010.41 1010.64 1010.75 1010.76 1010.85 1010.70 1011.14 1011.61 1012.45 1013.01 1013.55
1018.30 1017.58 1017.01 1016.23 1015.40 1014.45 1013.48 1012.42 1011.37 1010.64 1010.04 1009.64 1009.26 1009.57 1010.04 1009.49 1006.41 1006.22 1006.42 1006.28 1006.33 1007.03 1007.59 1007.87 1008.10 1008.31 1008.69 1009.31 1009.62 1009.52 1009.91 1009.89 1009.84 1010.02 1010.21 1010.50 1010.43 1010.77 1010.59 1010.51 1011.51 1012.10 1012.48 1012.97 1013.13
1018.03 1017.40 1016.78 1015.98 1015.02 1013.99 1013.00 1011.91 1010.88 1009.79 1009.32 1008.96 1008.89 1009.18 1009.05 1006.86 1006.01 1006.06 1006.23 1006.06 1005.91 1006.23 1007.01 1007.33 1007.73 1008.09 1008.68 1009.28 1009.07 1009.33 1009.93 1010.04 1009.81 1010.07 1010.08 1010.50 1010.05 1009.58 1009.96 1010.25 1010.99 1011.67 1012.16 1012.66 1013.12
1017.90 1017.15 1016.37 1015.55 1014.68 1013.64 1012.42 1011.33 1009.93 1009.15 1008.50 1008.33 1008.46 1008.77 1007.63 1005.91 1005.76 1005.89 1005.92 1005.82 1005.75 1005.91 1006.26 1006.82 1007.77 1008.35 1008.71 1008.82 1009.17 1009.73 1009.99 1009.84 1009.46 1009.87 1010.09 1010.22 1008.00 1008.73 1009.14 1009.94 1010.63 1011.04 1011.50 1012.36 1012.85
1017.75 1017.08 1016.16 1015.30 1014.30 1013.16 1011.92 1010.09 1009.01 1008.25 1007.79 1007.76 1008.39 1008.57 1006.88 1005.72 1005.83 1005.29 1005.54 1005.67 1005.92 1006.09 1006.35 1006.65 1007.56 1007.88 1008.35 1008.76 1009.47 1009.39 1009.01 1009.25 1009.62 1009.23 1009.57 1009.76 1008.76 1008.82 1009.22 1009.73 1010.30 1010.96 1011.48 1012.01 1012.67
1017.66 1016.93 1016.09 1014.91 1013.74 1012.50 1010.99 1009.30 1008.58 1008.14 1007.85 1007.70 1008.11 1008.87 1006.66 1005.95 1005.62 1005.37 1005.31 1005.47 1005.88 1006.13 1006.75 1006.90 1007.26 1007.01 1007.72 1007.79 1007.04 1008.28 1008.92 1008.96 1009.06 1008.86 1009.00 1009.32 1009.30 1009.44 1009.87 1010.24 1010.93 1011.42 1011.90 1012.37 1012.84
1017.50 1016.60 1015.74 1014.72 1013.43 1012.06 1010.97 1010.04 1010.29 1009.66 1009.86 1009.60 1008.89 1007.71 1007.03 1006.61 1005.87 1005.55 1005.44 1005.70 1005.99 1006.30 1006.32 1006.60 1006.59 1005.69 1006.07 1006.50 1007.32 1007.69 1008.26 1008.67 1008.67 1008.36 1008.77 1008.99 1009.38 1009.99 1010.53 1011.20 1011.90 1012.26 1012.60 1012.82 1013.00
1017.20 1016.24 1015.51 1014.54 1013.18 1012.45 1012.11 1012.52 1013.52 1013.85 1011.16 1009.92 1008.34 1008.39 1007.67 1007.34 1006.85 1006.01 1005.61 1005.99 1006.28 1006.38 1006.72 1007.36 1006.20 1006.33 1006.61 1007.16 1007.47 1007.94 1008.31 1008.75 1008.94 1008.66 1008.84 1009.24 1009.59 1010.14 1010.89 1011.70 1012.51 1013.10 1013.43 1013.47 1013.50
1016.94 1016.16 1015.20 1014.24 1013.02 1013.00 1013.19 1013.23 1013.39 1013.27 1012.54 1009.41 1008.43 1007.98 1007.62 1007.55 1007.01 1006.13 1005.75 1005.70 1006.09 1006.73 1006.85 1006.79 1006.48 1006.39 1006.70 1006.91 1007.50 1007.62 1007.83 1008.38 1009.04 1009.06 1009.27 1009.67 1010.08 1010.88 1011.79 1012.62 1013.37 1013.87 1014.09 1014.00 1013.83
1017.03 1015.98 1014.91 1014.09 1013.75 1013.95 1013.36 1012.87 1012.84 1012.82 1012.05 1009.94 1008.61 1007.94 1007.67 1007.56 1007.14 1006.22 1005.88 1005.99 1006.43 1006.71 1007.16 1007.33 1006.73 1006.67 1006.85 1006.93 1007.34 1007.37 1007.80 1008.47 1009.11 1009.77 1009.81 1009.97 1010.42 1010.95 1011.96 1013.13 1014.01 1014.59 1014.69 1014.52 1014.29
1016.97 1016.04 1014.98 1014.42 1014.96 1014.43 1013.37 1012.77 1012.46 1012.67 1012.34 1010.93 1010.11 1008.33 1008.29 1008.76 1008.23 1006.87 1006.29 1006.34 1006.53 1006.73 1007.23 1006.97 1006.76 1006.83 1006.86 1006.55 1007.11 1007.25 1007.73 1008.46 1009.12 1009.77 1010.18 1010.70 1011.75 1011.47 1012.90 1014.00 1014.76 1015.42 1015.34 1015.17 1014.78
1016.94 1016.19 1015.44 1015.12 1015.05 1013.97 1013.42 1012.80 1012.62 1012.82 1012.68 1011.84 1010.56 1009.55 1008.91 1009.04 1009.14 1008.54 1007.30 1006.73 1007.15 1007.65 1007.84 1007.47 1007.01 1006.80 1006.63 1006.79 1007.04 1007.53 1008.40 1009.08 1009.51 1010.18 1010.67 1010.52 1012.04 1012.41 1013.85 1014.95 1015.67 1015.97 1015.99 1015.83 1015.66
1016.92 1016.23 1015.69 1015.49 1015.34 1013.97 1013.46 1013.12 1013.47 1014.29 1013.94 1013.13 1011.88 1011.09 1010.58 1010.19 1009.73 1009.63 1009.39 1009.04 1009.22 1009.04 1008.37 1007.70 1007.53 1007.20 1007.05 1007.22 1007.60 1008.14 1008.71 1009.40 1010.20 1010.38 1010.47 1010.84 1012.60 1012.91 1014.77 1015.77 1016.37 1016.48 1016.55 1016.41 1016.33
1016.94 1016.33 1015.99 1015.58 1014.98 1014.35 1013.84 1014.03 1015.00 1015.85 1015.29 1014.11 1013.36 1012.15 1011.85 1011.53 1011.04 1010.57 1010.31 1010.61 1010.85 1010.06 1009.31 1008.71 1008.58 1008.27 1008.03 1007.97 1007.98 1008.14 1008.27 1008.60 1009.48 1010.48 1011.19 1011.93 1013.10 1014.04 1015.66 1016.27 1016.64 1016.98 1016.99 1016.95 1017.03
1017.19 1016.96 1016.54 1015.64 1015.02 1014.60 1015.04 1015.82 1017.13 1016.90 1016.39 1015.44 1013.95 1013.36 1013.12 1012.80 1012.82 1012.36 1012.50 1012.47 1012.46 1011.95 1011.41 1010.63 1009.77 1009.62 1009.07 1008.55 1008.61 1008.82 1008.97 1009.10 1009.86 1010.93 1011.65 1012.58 1013.84 1015.29 1016.02 1016.67 1017.13 1017.37 1017.38 1017.66 1017.74
1018.25 1018.18 1017.21 1015.90 1015.29 1015.34 1016.25 1017.55 1017.83 1017.21 1016.55 1015.98 1015.59 1014.92 1014.83 1014.48 1014.08 1013.90 1013.74 1013.78 1013.32 1012.80 1012.56 1012.47 1011.58 1010.77 1010.04 1009.07 1009.20 1009.24 1009.33 1009.71 1009.95 1011.02 1012.13 1013.51 1014.50 1015.05 1016.28 1017.03 1017.59 1017.89 1018.06 1018.22 1018.47
1019.01 1018.74 1017.32 1016.40 1015.72 1016.85 1018.60 1018.84 1018.25 1017.43 1017.07 1016.67 1016.51 1016.17 1016.03 1015.73 1015.35 1015.11 1014.82 1014.47 1013.99 1013.45 1013.28 1013.31 1012.81 1012.12 1011.01 1010.86 1010.70 1010.42 1010.17 1010.38 1010.65 1011.40 1012.23 1013.93 1014.77 1015.55 1016.38 1017.11 1017.76 1018.19 1018.47 1018.65 1018.90
1020.23 1019.78 1018.05 1017.17 1017.89 1019.32 1019.81 1019.61 1018.76 1017.96 1017.42 1017.21 1017.01 1016.89 1016.81 1016.52 1016.05 1015.67 1015.34 1014.97 1014.71 1014.49 1014.47 1014.08 1014.14 1013.58 1012.88 1012.67 1012.09 1012.10 1011.98 1011.61 1011.77 1013.15 1013.45 1014.18 1015.55 1015.56 1016.12 1017.29 1017.85 1018.33 1018.73 1019.09 1019.43
1021.29 1021.17 1019.24 1018.72 1020.21 1020.66 1020.56 1019.94 1019.25 1018.54 1018.18 1017.81 1017.71 1017.61 1017.27 1017.12 1016.88 1016.03 1015.81 1015.47 1015.23 1015.12 1015.21 1015.19 1015.58 1014.79 1013.84 1013.83 1013.40 1013.36 1013.44 1013.37 1013.07 1013.41 1014.09 1014.69 1015.97 1016.18 1016.72 1017.32 1017.99 1018.35 1018.90 1019.42 1019.87
1021.98 1022.01 1021.29 1021.33 1022.01 1021.97 1021.44 1020.75 1019.84 1019.07 1018.71 1018.70 1018.45 1018.12 1017.78 1017.34 1016.97 1016.53 1016.30 1016.06 1015.93 1015.97 1015.72 1015.92 1016.81 1016.95 1016.69 1015.85 1015.26 1014.78 1014.64 1014.50 1014.26 1014.39 1014.72 1015.17 1015.67 1016.20 1016.70 1017.12 1017.80 1018.53 1019.10 1019.68 1020.24
1022.92 1023.44 1023.46 1023.02 1022.65 1022.78 1022.34 1021.67 1020.91 1020.09 1019.57 1019.38 1018.93 1019.08 1018.80 1018.46 1017.93 1017.51 1017.27 1016.95 1016.70 1016.91 1017.06 1017.42 1018.27 1018.01 1017.32 1016.65 1016.04 1015.71 1015.35 1015.21 1015.02 1015.06 1015.12 1015.37 1015.47 1015.89 1016.38 1016.94 1017.72 1018.59 1019.33 1019.93 1020.61
1023.40 1023.72 1023.54 1023.70 1023.56 1023.47 1023.10 1022.76 1022.04 1021.23 1020.86 1020.22 1020.25 1019.81 1019.54 1019.90 1019.73 1019.10 1018.56 1018.19 1018.24 1017.99 1018.39 1018.72 1019.34 1019.10 1018.50 1017.70 1017.09 1016.55 1016.05 1015.84 1015.59 1015.41 1015.48 1015.46 1015.90 1016.22 1016.76 1017.41 1018.27 1018.89 1019.47 1020.08 1020.80
1023.50 1023.72 1023.89 1023.90 1024.10 1024.06 1024.14 1023.71 1022.74 1022.19 1021.20 1020.98 1021.04 1020.60 1020.13 1019.86 1019.79 1019.45 1019.13 1018.85 1018.99 1019.04 1019.29 1020.02 1020.26 1020.31 1020.01 1018.67 1017.92 1017.64 1017.09 1016.56 1016.00 1015.93 1016.20 1016.28 1016.51 1016.88 1017.47 1018.00 1018.69 1019.38 1019.97 1020.57 1021.21
Thickness
5607 5609 5609 5610 5613 5616 5619 5622 5624 5625 5626 5627 5626 5627 5626 5626 5625 5625 5634 5634 5632 5635 5634 5630 5632 5631 5623 5618 5616 5613 5601 5598 5633 5631 5644 5643 5640 5646 5647 5644 5644 5648 5654 5654 5651
5602 5604 5605 5607 5609 5612 5616 5619 5621 5623 5624 5624 5623 5622 5621 5621 5621 5630 5643 5638 5632 5626 5626 5627 5626 5620 5609 5610 5607 5607 5606 5615 5636 5634 5636 5637 5636 5638 5638 5637 5638 5641 5633 5635 5643
5598 5600 5602 5604 5606 5610 5613 5616 5617 5619 5620 5621 5621 5619 5616 5613 5610 5634 5647 5644 5635 5624 5619 5619 5621 5619 5609 5603 5601 5608 5617 5624 5627 5630 5630 5626 5627 5631 5630 5629 5643 5641 5637 5628 5637
5596 5598 5600 5603 5605 5608 5611 5614 5615 5617 5618 5618 5616 5613 5610 5606 5615 5639 5641 5640 5632 5622 5616 5609 5605 5607 5610 5606 5611 5601 5611 5615 5624 5624 5618 5617 5620 5617 5620 5632 5639 5641 5633 5625 5631
5593 5595 5597 5599 5602 5604 5607 5610 5612 5614 5615 5615 5613 5608 5600 5599 5614 5629 5629 5628 5627 5615 5611 5608 5603 5602 5599 5597 5592 5596 5603 5609 5613 5612 5611 5609 5609 5613 5609 5621 5621 5621 5618 5619 5623
5590 5592 5593 5594 5597 5601 5603 5606 5609 5611 5611 5609 5608 5602 5595 5589 5621 5619 5614 5615 5614 5607 5600 5597 5597 5595 5592 5586 5588 5591 5593 5595 5596 5601 5600 5600 5605 5601 5605 5618 5609 5608 5612 5609 5614
5586 5588 5589 5591 5592 5595 5598 5601 5604 5608 5606 5603 5598 5592 5590 5600 5608 5605 5601 5601 5602 5598 5590 5588 5584 5581 5576 5574 5579 5578 5576 5575 5581 5585 5591 5591 5595 5603 5613 5610 5609 5605 5608 5604 5603
5580 5581 5582 5584 5587 5590 5592 5595 5600 5600 5597 5592 5585 5578 5582 5596 5593 5588 5586 5585 5584 5583 5580 5575 5567 5563 5561 5563 5560 5560 5559 5562 5572 5574 5579 5584 5605 5608 5607 5602 5602 5604 5602 5596 5594
5574 5574 5576 5576 5577 5580 5583 5589 5591 5590 5585 5577 5566 5559 5570 5577 5572 5574 5568 5567 5562 5562 5560 5557 5548 5549 5547 5545 5538 5534 5553 5553 5561 5566 5566 5570 5582 5594 5588 5592 5596 5594 5593 5589 5586
5567 5565 5568 5568 5568 5570 5574 5577 5574 5570 5564 5555 5546 5534 5551 5552 5550 5550 5546 5545 5542 5540 5533 5530 5529 5536 5535 5535 5551 5546 5544 5535 5546 5553 5557 5554 5558 5571 5562 5572 5572 5571 5571 5571 5571
5557 5557 5557 5554 5552 5553 5554 5551 5532 5532 5523 5514 5510 5518 5519 5517 5522 5526 5522 5519 5517 5518 5521 5515 5517 5529 5539 5544 5538 5536 5534 5532 5527 5540 5538 5544 5549 5552 5541 5542 5542 5546 5549 5551 5556
5550 5548 5543 5538 5534 5528 5518 5501 5481 5466 5485 5490 5481 5475 5481 5483 5483 5493 5494 5494 5490 5500 5496 5485 5498 5523 5514 5512 5514 5510 5506 5504 5513 5521 5524 5525 5533 5534 5529 5529 5527 5528 5528 5532 5537
5539 5533 5529 5522 5517 5503 5486 5473 5458 5445 5445 5467 5459 5452 5453 5455 5455 5462 5472 5472 5470 5458 5469 5480 5490 5489 5493 5500 5497 5497 5501 5506 5502 5506 5505 5512 5515 5510 5501 5499 5501 5504 5508 5515 5523
5523 5518 5513 5507 5493 5475 5461 5449 5433 5420 5420 5432 5433 5428 5429 5430 5432 5447 5452 5456 5451 5451 5438 5443 5461 5461 5463 5475 5483 5485 5496 5493 5486 5475 5480 5498 5504 5505 5493 5487 5486 5483 5489 5498 5510
5510 5502 5493 5479 5458 5443 5437 5424 5413 5401 5381 5400 5392 5409 5408 5401 5412 5427 5436 5438 5437 5439 5435 5446 5445 5444 5450 5464 5462 5478 5468 5466 5468 5464 5468 5471 5477 5499 5473 5478 5469 5456 5470 5478 5491
5494 5483 5472 5457 5436 5428 5416 5406 5395 5387 5335 5370 5386 5385 5393 5391 5389 5394 5415 5427 5424 5418 5422 5431 5438 5444 5451 5449 5457 5455 5449 5444 5446 5451 5445 5469 5478 5483 5465 5450 5436 5447 5452 5460 5468
5476 5464 5450 5433 5417 5413 5402 5390 5371 5355 5359 5356 5358 5364 5373 5378 5386 5384 5382 5388 5387 5395 5405 5423 5425 5434 5437 5441 5442 5442 5437 5441 5440 5443 5456 5447 5464 5470 5427 5414 5420 5428 5433 5443 5450
5461 5448 5432 5418 5406 5396 5384 5375 5352 5341 5333 5342 5342 5353 5352 5353 5366 5369 5375 5371 5361 5373 5399 5412 5414 5414 5419 5424 5427 5433 5439 5450 5434 5437 5435 5429 5444 5441 5393 5408 5403 5416 5423 5431 5433
5448 5430 5415 5406 5395 5382 5366 5346 5328 5319 5318 5320 5334 5335 5337 5343 5336 5339 5339 5340 5342 5350 5363 5373 5396 5386 5397 5404 5416 5422 5419 5424 5402 5384 5421 5431 5413 5398 5402 5405 5405 5409 5414 5416 5420
5431 5409 5402 5397 5386 5370 5349 5335 5311 5325 5323 5320 5313 5318 5312 5314 5319 5314 5318 5324 5330 5342 5346 5343 5370 5370 5384 5399 5399 5406 5412 5411 5420 5423 5424 5386 5395 5415 5393 5397 5397 5395 5393 5400 5406
5416 5397 5394 5383 5377 5351 5320 5301 5315 5320 5314 5312 5307 5309 5307 5309 5305 5301 5309 5314 5316 5327 5328 5322 5335 5360 5374 5373 5377 5392 5398 5399 5406 5408 5399 5388 5388 5374 5375 5388 5383 5383 5386 5389 5393
5393 5385 5386 5379 5353 5318 5310 5309 5318 5314 5312 5307 5305 5304 5298 5298 5289 5303 5308 5297 5308 5311 5309 5317 5300 5314 5346 5344 5357 5354 5362 5374 5392 5366 5370 5396 5371 5357 5347 5355 5366 5374 5376 5379 5382
5389 5369 5371 5362 5336 5321 5310 5310 5309 5308 5304 5304 5296 5294 5294 5284 5293 5298 5302 5304 5305 5308 5299 5298 5282 5305 5344 5343 5340 5340 5343 5346 5337 5330 5342 5390 5362 5357 5357 5362 5364 5366 5366 5366 5367
5372 5360 5349 5327 5312 5309 5306 5304 5305 5303 5294 5290 5288 5289 5287 5281 5291 5298 5295 5301 5301 5299 5316 5300 5266 5281 5278 5308 5322 5322 5330 5335 5329 5347 5338 5347 5354 5359 5357 5363 5361 5358 5356 5355 5355
5356 5343 5329 5321 5314 5299 5290 5289 5289 5288 5285 5280 5285 5282 5281 5282 5281 5288 5286 5288 5294 5289 5284 5278 5266 5278 5297 5298 5310 5318 5326 5328 5333 5330 5333 5341 5348 5357 5359 5359 5356 5348 5347 5346 5346
5351 5339 5313 5313 5294 5285 5289 5273 5280 5280 5275 5277 5270 5271 5268 5264 5269 5269 5272 5274 5268 5273 5262 5264 5259 5273 5268 5291 5294 5298 5316 5320 5327 5335 5319 5345 5350 5351 5349 5347 5344 5340 5342 5344 5344
5355 5339 5323 5304 5291 5281 5275 5269 5272 5271 5277 5274 5264 5263 5249 5269 5264 5263 5267 5267 5260 5259 5248 5231 5242 5229 5234 5268 5266 5269 5281 5305 5319 5326 5329 5335 5340 5333 5342 5343 5339 5332 5335 5335 5334